Le nostre stazioni meteo in Italia

Pubblicità
Il mio iltempo24.it
Olbia/Costa Smeralda, Italia (16531): Temperatura & dewpoint: 14.04.2018 20:00:00 - 20.04.2018 20:00:00 (CEST)Olbia/Costa Smeralda, Italia (16531): velocità del vento: 14.04.2018 20:00:00 - 20.04.2018 20:00:00 (CEST)Olbia/Costa Smeralda, Italia (16531): direzione del vento: 14.04.2018 20:00:00 - 20.04.2018 20:00:00 (CEST)Olbia/Costa Smeralda, Italia (16531): reduced air pressure: 14.04.2018 20:00:00 - 20.04.2018 20:00:00 (CEST)Olbia/Costa Smeralda, Italia (16531): visibility: 14.04.2018 20:00:00 - 20.04.2018 20:00:00 (CEST)Olbia/Costa Smeralda, Italia (16531): precipitazioni: 14.04.2018 20:00:00 - 20.04.2018 20:00:00 (CEST)
Data & Tempo tt [°C] td [°C] ff [km/h] ff [kn] dd ppp [hPa] vv [km] rr [mm]
20.04.2018 20:00:00 18,6 11,7 4 2 N 1020,1 10 -
20.04.2018 19:00:00 21,0 13,0 13 7 ENE - 10 -
20.04.2018 18:00:00 23,0 11,0 15 8 E - 10 -
20.04.2018 17:00:00 23,3 11,1 16 9 E 1020,2 15 0,0
20.04.2018 16:00:00 25,0 10,0 18 10 ENE - 10 -
20.04.2018 15:00:00 25,0 11,0 16 9 ENE - 10 -
20.04.2018 14:00:00 24,0 8,4 13 7 ENE 1021,7 20 -
20.04.2018 13:00:00 24,0 12,0 16 9 ENE - 10 -
20.04.2018 12:00:00 23,0 12,0 11 6 E - 10 -
20.04.2018 11:00:00 22,3 11,4 5 3 NE 1022,8 10 0,0
20.04.2018 10:00:00 21,0 13,0 2 1 - - 10 -
20.04.2018 09:00:00 16,0 13,0 2 1 - - 10 -
20.04.2018 08:00:00 12,7 11,6 4 2 S 1022,4 10 -
20.04.2018 07:00:00 10,0 9,0 4 2 - - 10 -
20.04.2018 06:00:00 9,0 8,0 2 1 - - 10 -
20.04.2018 05:00:00 10,2 9,4 2 1 N 1022,6 12 0,0
20.04.2018 04:00:00 10,0 10,0 8 4 SSO - 10 -
20.04.2018 03:00:00 10,0 10,0 2 1 - - 10 -
20.04.2018 02:00:00 10,9 9,9 2 1 N 1023,6 12 -
20.04.2018 01:00:00 11,0 10,0 2 1 - - 10 -
20.04.2018 00:00:00 13,0 12,0 4 2 - - 10 -
19.04.2018 23:00:00 13,6 12,3 4 2 - 1024,3 15 0,0
19.04.2018 22:00:00 14,0 13,0 4 2 SSO - 10 -
19.04.2018 21:00:00 16,0 14,0 2 1 - - 10 -
19.04.2018 20:00:00 17,4 14,0 11 6 ENE 1023,9 15 -
19.04.2018 19:00:00 20,0 14,0 9 5 ENE - 10 -
19.04.2018 18:00:00 20,0 14,0 11 6 NE - 10 -
19.04.2018 17:00:00 20,0 14,5 16 9 ENE 1024,4 10 0,0
19.04.2018 16:00:00 20,0 15,0 21 11 ENE - 10 -
19.04.2018 15:00:00 21,0 14,0 21 11 ENE - 10 -
19.04.2018 14:00:00 20,6 14,3 18 10 ENE 1025,1 10 -
19.04.2018 13:00:00 21,0 14,0 18 10 ENE - 10 -
19.04.2018 12:00:00 21,0 14,0 9 5 ENE - 10 -
19.04.2018 11:00:00 20,4 13,5 9 5 NE 1025,6 10 0,0
19.04.2018 10:00:00 19,0 13,0 5 3 NO - 10 -
19.04.2018 09:00:00 16,0 13,0 4 2 - - 10 -
19.04.2018 08:00:00 13,0 11,6 5 3 S 1025,4 20 -
19.04.2018 07:00:00 12,0 11,0 4 2 - - 10 -
19.04.2018 06:00:00 13,0 11,0 5 3 SO - 10 -
19.04.2018 05:00:00 12,8 11,2 5 3 OSO 1024,8 10 0,0
19.04.2018 04:00:00 13,0 11,0 2 1 - - 10 -
19.04.2018 03:00:00 12,0 10,0 2 1 - - 10 -
19.04.2018 02:00:00 12,2 11,0 5 3 OSO 1025,7 10 -
19.04.2018 01:00:00 11,0 10,0 2 1 SSE - 10 -
19.04.2018 00:00:00 13,0 11,0 8 4 OSO - 10 -
18.04.2018 23:00:00 13,2 11,4 2 1 - 1025,6 10 0,0
18.04.2018 22:00:00 15,0 12,0 5 3 SO - 10 -
18.04.2018 21:00:00 17,0 13,0 4 2 - - 10 -
18.04.2018 20:00:00 17,9 12,9 8 4 E 1024,7 10 -
18.04.2018 19:00:00 20,0 13,0 11 6 ENE - 10 -
18.04.2018 18:00:00 20,0 13,0 13 7 NE - 10 -
18.04.2018 17:00:00 20,1 11,9 18 10 ENE 1024,3 10 0,0
18.04.2018 16:00:00 21,0 12,0 16 9 ENE - 10 -
18.04.2018 15:00:00 21,0 11,0 21 11 ENE - 10 -
18.04.2018 14:00:00 21,0 11,1 21 11 ENE 1024,8 10 -
18.04.2018 13:00:00 21,0 12,0 21 11 NE - 10 -
18.04.2018 12:00:00 20,0 14,0 22 12 ENE - 10 -
18.04.2018 11:00:00 19,4 13,5 13 7 ENE 1024,8 10 0,0
18.04.2018 10:00:00 18,0 14,0 9 5 N - 10 -
18.04.2018 09:00:00 17,0 13,0 5 3 NNE - 10 -
18.04.2018 08:00:00 14,9 12,7 5 3 OSO 1023,9 10 -
18.04.2018 07:00:00 16,0 12,0 9 5 NNO - 10 -
18.04.2018 06:00:00 14,0 11,0 4 2 - - 10 -
18.04.2018 05:00:00 16,0 12,3 2 1 - 1022,8 10 0,0
18.04.2018 04:00:00 - - - - - - - -
18.04.2018 03:00:00 14,0 12,0 4 2 - - 10 -
18.04.2018 02:00:00 12,8 11,5 4 2 - 1023,4 10 -
18.04.2018 01:00:00 13,0 12,0 4 2 OSO - 10 -
18.04.2018 00:00:00 13,0 12,0 4 2 - - 10 -
17.04.2018 23:00:00 13,4 12,2 9 5 SO 1022,6 10 0,0
17.04.2018 22:00:00 - - - - - - - -
17.04.2018 21:00:00 16,0 14,0 4 2 - - 10 -
17.04.2018 20:00:00 16,9 13,4 5 3 E 1020,9 10 -
17.04.2018 19:00:00 20,0 13,0 9 5 E - 10 -
17.04.2018 18:00:00 21,0 11,0 15 8 E - 10 -
17.04.2018 17:00:00 21,9 9,8 16 9 ENE 1019,6 10 0,0
17.04.2018 16:00:00 22,0 12,0 18 10 ENE - 10 -
17.04.2018 15:00:00 22,0 13,0 21 11 ENE - 10 -
17.04.2018 14:00:00 22,8 11,0 15 8 ENE 1020,1 19 -
17.04.2018 13:00:00 23,0 11,0 13 7 E - 10 -
17.04.2018 12:00:00 23,0 10,0 2 1 - - 10 -
17.04.2018 11:00:00 21,0 11,6 9 5 OSO 1020,3 10 0,0
17.04.2018 10:00:00 19,0 11,0 16 9 SO - 10 -
17.04.2018 09:00:00 17,0 11,0 16 9 SO - 10 -
17.04.2018 08:00:00 14,3 10,2 22 12 SO 1018,9 10 -
17.04.2018 07:00:00 14,0 10,0 26 14 SO - 10 -
17.04.2018 06:00:00 13,0 10,0 22 12 SO - 10 -
17.04.2018 05:00:00 13,8 9,7 24 13 OSO 1017,6 10 0,0
17.04.2018 04:00:00 14,0 10,0 21 11 O - 10 -
17.04.2018 03:00:00 14,0 11,0 18 10 OSO - 10 -
17.04.2018 02:00:00 14,7 10,4 22 12 OSO 1016,4 10 -
17.04.2018 01:00:00 15,0 11,0 31 17 OSO - 10 -
17.04.2018 00:00:00 16,0 10,0 22 12 OSO - 10 -
16.04.2018 23:00:00 15,8 10,6 22 12 SO 1016,6 10 0,0
16.04.2018 22:00:00 17,0 12,0 24 13 OSO - 10 -
16.04.2018 21:00:00 18,0 11,0 18 10 OSO - 10 -
16.04.2018 20:00:00 20,3 8,3 13 7 O 1014,1 10 -
16.04.2018 19:00:00 22,0 7,0 22 12 O - 10 -
16.04.2018 18:00:00 23,0 9,0 24 13 O - 10 -
16.04.2018 17:00:00 24,0 7,4 29 16 O 1012,6 10 0,0
16.04.2018 16:00:00 24,0 9,0 26 14 O - 10 -
16.04.2018 15:00:00 25,0 8,0 26 14 O - 10 -
16.04.2018 14:00:00 24,5 8,6 26 14 OSO 1012,3 10 -
16.04.2018 13:00:00 23,0 11,0 28 15 SO - 10 -
16.04.2018 12:00:00 22,0 11,0 34 18 SO - 10 -
16.04.2018 11:00:00 20,2 11,0 31 17 OSO 1012,6 10 0,0
16.04.2018 10:00:00 18,0 10,0 29 16 SO - 10 -
16.04.2018 09:00:00 16,0 10,0 22 12 SO - 10 -
16.04.2018 08:00:00 15,1 9,0 26 14 OSO 1011,5 10 -
16.04.2018 07:00:00 14,0 9,0 28 15 OSO - 10 -
16.04.2018 06:00:00 14,0 9,0 26 14 OSO - 10 -
16.04.2018 05:00:00 14,3 10,0 24 13 OSO 1010,1 10 0,0
16.04.2018 04:00:00 15,0 10,0 22 12 OSO - 10 -
16.04.2018 03:00:00 15,0 9,0 22 12 OSO - 10 -
16.04.2018 02:00:00 15,1 8,8 13 7 SO 1010,1 10 -
16.04.2018 01:00:00 15,0 9,0 11 6 SO - 10 -
16.04.2018 00:00:00 16,0 9,0 22 12 OSO - 10 -
15.04.2018 23:00:00 17,0 8,7 15 8 O 1010,0 10 0,0
15.04.2018 22:00:00 17,0 9,0 13 7 SO - 10 -
15.04.2018 21:00:00 18,0 10,0 28 15 O - 10 -
15.04.2018 20:00:00 17,9 9,6 8 4 O 1007,1 10 -
15.04.2018 19:00:00 20,0 9,0 13 7 N - 10 -
15.04.2018 18:00:00 20,0 11,0 8 4 E - 10 -
15.04.2018 17:00:00 21,5 6,8 15 8 NNE 1005,7 10 0,0
15.04.2018 16:00:00 21,0 9,0 16 9 ENE - 10 -
15.04.2018 15:00:00 21,0 9,0 24 13 N - 10 -
15.04.2018 14:00:00 20,7 9,3 26 14 NNE 1006,9 10 -
15.04.2018 13:00:00 21,0 9,0 28 15 NNE - 10 -
15.04.2018 12:00:00 20,0 9,0 31 17 NNE - 10 -
15.04.2018 11:00:00 19,9 8,6 29 16 NNE 1007,4 10 0,0
15.04.2018 10:00:00 19,0 10,0 21 11 NNE - 10 -
15.04.2018 09:00:00 17,0 11,0 9 5 NNO - 10 -
15.04.2018 08:00:00 16,4 10,5 4 2 N 1006,8 15 -
15.04.2018 07:00:00 16,0 10,0 11 6 - - 10 -
15.04.2018 06:00:00 15,0 12,0 5 3 NNE - 10 -
15.04.2018 05:00:00 15,0 12,3 9 5 S 1009,1 - 0,0
15.04.2018 04:00:00 15,0 13,0 2 1 - - 10 -
15.04.2018 03:00:00 16,0 13,0 8 4 ENE - 10 -
15.04.2018 02:00:00 14,6 12,6 4 2 - 1009,5 10 -
15.04.2018 01:00:00 - - - - - - - -
15.04.2018 00:00:00 14,0 12,0 2 1 - - 10 -
14.04.2018 23:00:00 13,4 11,9 8 4 S 1011,4 10 0,0
14.04.2018 22:00:00 14,0 12,0 5 3 O - 10 -
14.04.2018 21:00:00 14,0 13,0 8 4 S - 10 -
14.04.2018 20:00:00 15,0 12,9 13 7 SSO 1011,7 10 -

tt = Temperatura
td = dewpoint
ff = velocità del vento
dd = direzione del vento
ppp = reduced air pressure
vv = visibility
rr = precipitazioni

Stazioni seguenti

WeatherPro
AMSI
MeteoEarth